Regional Weather Roundup
Issued by NWS

Home | Current Version | Previous Version | Text Only | Print | Product List | Glossary On
Versions: 1 2 3 4 5 6 7 8 9 10 11 12 13 14 15 16 17 18 19 20 21 22 23 24 25 26 27
000
ASUS42 KFFC 280303
RWRGA
WEATHER ROUNDUP FOR GEORGIA
NATIONAL WEATHER SERVICE PEACHTREE CITY GA
1100 PM EDT TUE SEP 27 2016

NOTE: "FAIR" INDICATES FEW OR NO CLOUDS BELOW 12,000 FEET WITH NO
SIGNIFICANT WEATHER AND/OR OBSTRUCTIONS TO VISIBILITY.

* = USE WITH CAUTION. THE STATIONS MARKED WITH AN ASTERISK MAY NOT
REPORT WEATHER SUCH AS PRECIPITATION, FOG, OR THUNDER AND ARE NOT
QUALITY CONTROLLED BY NWS.

THE REMARK "TC" DENOTES TEMPERATURE READING IN DEGREES CELSIUS.

GAZ001>058-280400-
NORTH GEORGIA

CITY           SKY/WX    TMP DP  RH WIND       PRES   REMARKS
ATLANTA        CLOUDY    72  70  93 SW3       29.94S
ATHENS         CLOUDY    74  70  87 W3        29.93R
CHAMBLEE       MOCLDY    70  66  87 CALM      29.93F
PEACHTREE CITY PTCLDY    71  69  93 CALM      29.95R
ROME           PTCLDY    71  69  93 CALM      29.92R
WEST ATLANTA   CLOUDY    69  66  90 CALM      29.93S
GAINESVILLE    CLOUDY    74  67  78 SW6       29.96R
CARTERSVILLE   CLEAR     73  67  81 CALM      29.93R


CITY           SKY/WX    TMP DP  RH WIND       PRES   REMARKS
DALTON*        PTCLDY    68  64  88 CALM      29.94R
MARIETTA       MOCLDY    69  68  98 S2        29.93F
CANTON*        CLEAR     73  61  64 CALM      29.96S
BLAIRSVILLE*     N/A    N/A N/A N/A MISG      29.98R HAZE
$$

GAZ059>098-102>109-280400-
CENTRAL GEORGIA

CITY           SKY/WX    TMP DP  RH WIND       PRES   REMARKS
AUGUSTA-BUSH   PTCLDY    74  67  78 S5        29.89S
AUGUSTA-DANIEL CLEAR     78  65  63 S5        29.91S
COLUMBUS       CLEAR     78  66  66 SW3       29.92R
MACON          CLEAR     75  66  73 CALM      29.91S
ROBINS AFB     CLEAR     75  68  77 S6        29.91R


CITY           SKY/WX    TMP DP  RH WIND       PRES   REMARKS
LAGRANGE*      CLEAR     73  72  94 NW3       29.94R
MILLEDGEVILLE* CLEAR     73  73 100 CALM      29.91S
$$

GAZ099>101-110>166-280400-
SOUTH GEORGIA

CITY           SKY/WX    TMP DP  RH WIND       PRES   REMARKS
SAVANNAH       PTCLDY    76  71  85 CALM      29.93R
VALDOSTA       PTCLDY    73  72  96 CALM      29.94R
ALMA           CLEAR     72  70  93 CALM      29.93R
ST SIMONS      PTCLDY    78  71  79 CALM      29.93R
FT STEWART     PTCLDY    73  70  90 CALM      29.91R
ALBANY         CLEAR     76  68  76 SW5       29.95R
HUNTER AFB     PTCLDY    74  74 100 VRB2      29.91R
MOODY AFB      PTCLDY    73  69  89 CALM      29.93R
BRUNSWICK        N/A     72  72 100 CALM      29.94R FOG


CITY           SKY/WX    TMP DP  RH WIND       PRES   REMARKS
BAINBRIDGE*    PTCLDY    77  72  83 CALM      29.94S
MOULTRIE*      CLEAR     75  70  83 CALM      29.95S
VIDALIA*       CLEAR     73  72  94 CALM      29.93S
WAYCROSS*      CLEAR     76  75  97 CALM      29.93S
DOUGLAS*       CLEAR     72  70  94 CALM      29.95S
$$




USA.gov is the U.S. government's official web portal to all federal, state and local government web resources and services.